Tracking 31027 objects as of 19-Jul-2025
HD Live streaming from Space Station
objects crossing your sky now

FENGYUN 1C DEB

Track FENGYUN 1C DEB now!
10-day predictions


NORAD ID: 30442
Int'l Code: 1999-025AFD
Perigee: 770.0 km
Apogee: 849.4 km
Inclination: 98.9 °
Period: 100.9 minutes
Semi major axis: 7180 km
RCS: 0.0217 m2 (small)
Launch date: May 10, 1999
Source: People's Republic of China (PRC)
Launch site: Taiyaun Space Center, China (TSC)

Note: This is SATELLITE DEBRIS
Your satellite tracking list
CZ-3A R/B
Track 1 satellite(s)




NASA's NSSDC Master Catalog

Two Line Element Set (TLE):
1 30442U 99025AFD 25199.21611386  .00002716  00000-0  11219-2 0  9994
2 30442  98.8680 290.6813 0055294 359.3538   0.7562 14.26767110950575
Source of the keplerian elements: AFSPC